EHI
9 16 24 29 24 13 4 1 0 0 0 0 0 0 0 1 1 4 16 45 76 77 62 57 50 31 12 6 3 1 0 0 0 0 0 0 0 0 0 0 0 0 0 0 0 0 0 0 0
8 16 22 21 16 7 2 0 0 0 0 0 0 0 1 2 2 9 26 55 73 67 53 53 49 31 14 7 4 2 0 0 0 0 0 0 0 0 0 0 0 0 0 0 0 0 0 0 0
8 13 14 11 7 2 0 0 0 0 0 0 0 0 2 3 6 16 37 60 70 59 50 53 48 31 15 7 5 3 1 0 0 0 0 0 0 0 0 0 0 0 0 0 0 0 0 0 0
8 8 7 4 2 0 0 0 0 0 0 0 0 2 4 6 10 22 39 58 68 62 52 50 45 29 15 8 5 3 1 0 0 0 0 0 0 0 0 0 0 0 0 0 0 0 0 0 0
7 5 3 1 0 0 0 0 0 0 0 0 2 7 12 12 16 23 34 52 66 65 54 47 40 27 13 7 4 2 1 0 0 0 0 0 0 0 0 0 0 0 0 0 0 0 0 0 0
4 3 1 0 0 0 0 0 0 0 0 0 4 15 24 22 20 22 28 44 62 66 57 46 37 23 12 5 2 1 0 0 0 0 0 0 0 0 0 0 0 0 0 0 0 0 0 0 0
2 2 1 0 0 0 0 0 0 0 0 0 5 22 35 33 24 21 25 39 60 69 58 42 29 18 9 4 1 0 0 0 0 0 0 0 0 0 0 0 0 0 0 0 0 0 0 0 0
1 1 0 0 0 0 0 0 0 0 0 1 8 26 45 44 29 24 29 45 64 70 54 35 23 15 7 3 1 0 0 0 0 0 0 0 0 0 0 0 0 0 0 0 0 0 0 0 0
0 0 0 0 0 0 0 0 0 0 1 6 17 37 55 53 41 38 45 59 72 70 51 33 25 18 7 3 2 0 0 0 0 0 0 0 0 0 0 0 0 0 0 0 0 0 0 0 0
0 0 0 0 0 0 0 0 0 0 3 12 30 52 65 64 57 55 61 71 76 70 54 42 34 22 10 8 7 3 1 0 0 0 0 0 0 0 0 1 0 0 0 0 0 0 0 0 0
0 0 0 0 0 0 0 0 0 2 6 15 36 61 73 73 69 66 68 72 72 68 61 55 46 32 25 23 14 7 4 1 1 1 1 1 1 2 2 1 0 0 0 0 0 0 0 0 0
0 0 0 0 0 0 0 0 2 6 10 15 32 57 72 75 72 68 67 70 72 71 69 67 61 54 51 40 22 11 7 3 4 6 5 2 3 5 7 6 3 1 1 0 0 0 1 1 1
0 0 0 0 0 0 0 0 4 9 13 16 28 48 67 74 73 68 67 72 77 78 75 75 75 73 69 55 34 20 14 10 11 13 10 6 7 12 14 12 6 4 5 4 2 1 2 1 1
0 0 0 0 0 0 0 1 6 13 17 19 28 46 64 75 76 73 72 74 77 79 76 76 78 76 70 59 44 33 24 19 20 21 17 11 15 21 20 14 7 6 9 8 3 1 2 1 1
0 0 0 0 0 0 0 2 8 16 19 21 32 49 67 77 80 79 77 75 75 76 74 71 69 68 65 57 47 39 32 29 31 33 28 20 22 25 21 12 5 5 9 8 4 1 0 0 0
0 0 0 0 0 0 0 3 11 16 17 21 34 51 67 76 80 80 79 76 75 75 72 66 61 60 60 56 49 43 41 44 45 44 35 27 25 24 17 9 5 5 6 5 3 1 0 1 1
0 0 0 0 0 0 0 5 14 16 14 19 34 52 65 74 79 78 78 76 74 71 67 62 59 57 56 54 52 50 53 57 52 43 35 29 25 20 12 8 7 5 3 2 2 2 1 1 2
0 0 0 0 0 0 1 6 14 16 13 18 36 55 66 74 77 76 74 71 69 65 61 58 57 55 51 51 52 53 55 56 49 40 34 29 22 15 10 8 7 4 1 1 2 3 2 1 1
0 0 0 0 0 0 1 6 15 17 13 18 35 54 65 71 74 74 71 66 64 63 58 54 53 50 47 49 52 51 51 49 44 38 33 26 18 12 9 8 6 2 2 2 3 2 1 0 0
0 0 0 0 0 0 0 6 16 19 14 15 28 45 57 65 70 71 67 64 62 61 56 50 47 43 42 44 47 49 48 44 40 36 31 23 16 11 8 7 5 1 1 2 2 1 1 0 0
0 0 0 0 0 0 0 5 15 19 14 13 22 35 48 57 63 66 64 62 61 58 51 46 42 39 38 39 41 42 40 36 34 35 30 23 17 13 8 6 4 2 2 2 1 1 1 0 0
0 0 0 0 0 0 0 4 11 14 13 14 20 29 40 49 55 59 61 60 57 52 45 42 40 38 35 35 35 33 30 28 30 32 30 24 18 13 9 6 6 5 3 3 2 1 1 0 0
0 0 0 0 0 0 0 2 6 8 10 14 20 26 34 41 46 51 54 56 54 47 41 40 41 38 35 32 31 29 26 26 28 30 28 22 16 11 8 7 7 5 4 3 4 4 1 0 0
0 0 0 0 0 0 0 0 2 3 6 11 18 24 28 33 39 45 49 52 48 41 35 36 38 37 33 29 27 26 25 24 26 27 23 16 11 9 7 7 6 5 3 3 4 4 2 0 0
0 0 0 0 0 0 0 0 0 1 3 9 15 20 23 25 31 40 45 45 41 34 30 30 33 32 28 26 25 24 22 20 21 21 17 11 7 7 8 8 7 5 4 3 3 3 1 0 0
0 0 0 0 0 0 0 0 0 1 2 7 12 15 17 20 27 36 39 38 34 30 26 26 28 28 26 25 24 23 20 16 15 14 11 8 5 6 9 10 9 6 3 3 2 1 1 0 0
0 0 0 0 0 0 0 1 1 1 1 4 9 13 15 19 26 33 35 33 30 29 27 24 24 25 24 22 21 19 16 12 10 10 8 7 6 6 9 11 9 6 4 3 2 1 0 0 0
0 0 0 0 0 0 0 1 1 2 2 4 9 15 19 23 27 33 35 33 29 29 26 22 20 21 19 17 15 13 12 11 10 11 11 11 10 9 9 10 9 7 6 5 3 1 0 0 0
0 0 0 0 0 0 0 0 1 2 3 4 10 20 26 28 32 38 40 35 30 28 24 20 19 18 15 13 13 13 12 12 13 15 16 16 15 14 12 10 8 6 5 4 3 2 0 0 0
0 0 0 0 0 0 0 0 0 1 2 4 11 24 30 32 37 44 44 36 30 27 24 21 20 17 13 12 14 15 14 13 15 18 19 18 17 16 13 10 7 4 2 3 3 1 0 0 0
Wind_Speed
11 13 11 8 4 5 3 7 11 11 11 9 8 6 9 12 9 8 11 16 23 21 18 18 16 16 15 15 15 15 15 14 13 12 12 11 11 11 11 11 11 11 11 11 11 12 12 12 12
11 14 11 6 4 3 4 7 10 11 8 6 6 7 10 13 12 13 14 18 23 21 18 17 18 16 16 15 15 15 15 14 13 12 11 11 11 11 11 11 11 11 11 11 11 11 12 12 12
14 17 9 6 7 2 5 8 8 8 7 5 5 8 10 8 10 11 16 19 22 19 17 18 18 17 16 15 15 15 14 14 13 12 12 11 11 11 11 11 11 11 11 11 11 11 11 11 11
10 9 7 7 7 2 6 7 5 5 5 4 5 6 10 7 7 13 18 20 21 20 19 18 18 17 16 15 15 15 14 13 13 12 11 11 11 11 11 11 11 11 11 10 10 11 11 10 9
10 7 7 9 8 3 6 5 4 4 4 5 5 9 10 8 10 16 16 19 20 20 19 18 18 17 16 15 15 15 14 13 13 12 11 11 11 11 11 11 11 11 10 10 10 10 10 9 8
8 8 7 7 5 2 5 4 3 4 4 4 2 8 9 7 10 13 15 17 18 20 20 17 18 17 16 15 15 14 14 13 12 12 11 11 11 11 11 11 11 11 10 10 10 10 9 8 6
11 11 11 10 4 2 4 4 4 4 3 2 1 7 9 7 9 12 13 15 17 19 19 16 15 15 16 15 14 14 13 13 12 12 12 11 11 11 11 11 10 10 10 10 9 9 8 7 6
10 10 13 10 4 3 3 3 3 3 3 3 2 5 9 8 10 12 13 14 15 17 18 16 15 14 13 13 14 14 13 13 12 12 12 11 11 11 11 10 9 9 9 9 8 8 7 6 5
13 11 9 9 5 3 4 4 3 1 1 3 4 7 13 16 15 13 13 13 13 15 15 16 16 14 13 13 13 13 13 12 12 11 12 11 8 9 9 11 10 9 8 7 7 6 6 6 5
10 9 9 9 6 5 5 5 5 3 0 3 7 11 15 15 15 15 14 14 15 15 15 12 15 14 13 11 11 8 9 9 8 7 8 6 5 5 9 12 11 9 8 7 6 6 6 6 4
11 13 10 8 7 7 8 8 5 4 2 2 7 13 14 15 14 14 14 14 14 14 12 12 13 11 11 9 9 6 5 6 6 7 6 4 3 5 7 5 6 6 7 5 6 6 5 4 3
12 13 11 10 8 8 9 8 7 4 2 3 6 13 14 15 14 13 13 13 12 11 11 11 11 8 8 9 7 6 5 5 5 6 5 3 2 2 4 3 4 4 3 3 4 3 2 1 2
12 12 12 11 10 9 9 8 6 2 1 3 6 11 14 14 13 11 10 10 11 11 10 10 9 8 6 5 5 7 5 6 5 5 4 3 2 3 3 3 2 2 2 3 2 1 2 1 0
12 12 12 13 12 10 9 9 3 1 2 3 5 8 11 12 13 11 10 9 10 10 10 9 10 8 7 5 3 3 4 4 5 5 5 4 2 3 3 3 2 1 1 1 0 2 2 1 1
14 14 14 14 14 8 7 7 1 3 4 3 4 5 8 10 11 11 10 10 11 10 10 9 10 9 8 6 5 4 4 5 4 4 5 3 3 4 2 2 2 2 2 2 1 1 2 2 3
16 15 15 14 11 7 8 7 3 4 4 3 5 7 8 9 10 10 10 8 9 11 11 11 11 10 9 6 4 4 3 4 4 4 4 4 4 4 2 2 2 2 2 2 2 2 2 1 1
16 14 15 12 7 7 8 7 4 6 5 4 6 8 9 9 8 9 9 9 9 10 10 9 8 10 9 7 5 4 3 3 4 4 4 3 4 4 2 1 2 2 2 2 2 2 1 1 1
14 12 11 8 6 7 8 7 3 6 5 5 7 8 9 10 9 9 9 9 9 9 10 10 8 9 9 7 5 3 4 3 3 4 4 4 3 4 2 2 3 2 2 2 2 3 1 0 1
16 16 14 10 7 8 9 9 5 4 4 4 7 8 9 9 10 9 10 10 10 9 10 11 10 9 8 7 6 5 4 3 3 4 6 4 3 4 1 1 3 1 1 2 2 1 2 1 1
14 14 15 12 10 10 10 11 4 0 2 4 6 8 10 11 11 10 9 9 10 10 10 11 11 10 9 6 5 4 5 3 3 3 5 5 4 5 4 2 3 2 2 2 1 1 0 2 2
15 14 15 14 13 12 11 9 2 2 3 6 7 8 9 11 12 12 11 10 9 10 11 10 10 10 9 8 5 5 4 3 3 4 4 4 4 4 2 3 1 2 3 3 2 2 3 1 1
14 14 14 14 13 11 10 8 4 5 7 7 7 8 8 9 10 11 11 11 10 10 10 9 10 10 9 8 8 9 7 6 5 5 5 4 4 3 3 3 2 1 0 4 3 4 1 1 2
15 15 14 14 13 13 10 9 3 5 6 7 8 8 8 9 10 10 10 9 9 9 10 9 9 9 9 9 9 9 7 5 5 5 7 5 4 3 4 4 3 2 1 3 2 3 0 1 2
13 14 14 12 10 11 10 9 6 5 5 6 9 9 9 9 9 9 9 8 8 8 9 9 10 9 9 9 9 8 9 8 7 7 7 5 4 4 4 5 3 3 2 3 2 1 2 1 2
13 11 10 11 7 6 7 7 7 6 6 6 9 10 10 9 9 10 9 10 9 9 9 9 10 10 9 9 9 9 8 8 8 8 8 6 5 4 5 5 4 3 3 3 2 2 1 2 0
13 14 12 12 7 2 1 7 8 3 7 8 9 11 10 10 10 9 9 9 9 9 9 10 10 9 9 8 8 7 7 6 5 6 6 5 4 5 6 6 5 4 4 4 3 2 3 2 1
16 14 15 14 13 8 6 6 5 1 5 8 9 10 11 10 10 10 10 9 8 8 9 9 9 8 8 7 6 6 7 6 6 7 5 4 3 6 7 6 6 4 4 2 3 2 2 3 2
15 14 9 10 11 11 5 3 2 3 3 6 10 10 11 10 10 11 11 10 9 9 9 9 9 8 8 8 7 7 6 6 6 6 5 4 4 4 7 6 6 5 4 3 2 2 2 2 2
12 14 12 9 10 10 8 1 3 6 7 5 9 12 13 11 11 11 11 10 10 10 10 9 9 8 7 7 6 7 7 6 6 5 5 4 4 4 5 5 5 5 5 4 4 3 3 4 3
12 12 11 9 10 10 9 1 5 7 7 6 8 12 13 12 11 12 12 11 11 11 10 10 9 9 8 7 7 7 6 6 6 6 5 5 5 4 4 4 4 5 5 5 5 5 4 4 4
Wind_Direction
228 236 230 243 251 253 328 49 61 56 56 53 47 48 57 62 70 101 129 134 121 124 130 131 129 129 128 127 127 127 126 125 123 121 118 114 110 105 101 98 96 94 93 91 91 92 92 93 94
252 249 240 244 256 279 50 55 60 61 60 63 62 56 65 63 78 109 126 127 125 128 135 132 132 130 129 128 128 128 127 126 125 122 119 115 112 109 104 101 99 97 96 95 94 94 95 97 98
261 266 265 243 241 265 61 59 65 77 78 62 69 64 67 66 81 112 128 134 129 131 130 130 136 133 132 130 130 130 129 129 127 123 120 117 113 110 107 104 100 97 95 96 97 97 99 101 102
258 254 249 264 282 23 62 63 67 81 86 73 71 78 79 64 89 118 134 137 128 130 129 135 137 136 135 134 134 133 133 132 129 125 122 119 115 111 108 104 101 99 97 97 98 99 103 105 106
247 258 266 283 298 27 61 58 49 64 75 64 77 93 88 80 100 122 140 135 134 134 131 137 139 138 138 138 138 137 136 133 130 128 126 121 117 114 109 105 103 100 97 98 99 102 106 111 114
258 252 261 275 288 30 68 73 48 48 77 65 78 104 100 105 113 134 144 138 139 134 132 137 141 141 141 142 141 140 139 137 135 133 131 124 120 117 113 109 107 103 100 99 102 104 109 117 124
262 280 279 277 274 44 56 52 39 27 61 69 53 99 104 106 124 143 142 138 136 133 134 142 145 145 146 146 146 144 142 141 140 138 136 132 129 125 121 116 114 110 106 105 105 107 112 120 132
263 284 297 303 314 43 49 28 39 13 35 77 37 96 123 139 153 153 146 139 133 136 140 147 149 149 152 151 151 149 147 145 144 143 143 142 141 139 136 130 122 118 115 113 113 118 123 133 148
262 269 293 299 322 8 10 355 354 354 92 90 56 81 136 153 158 157 149 141 138 141 145 155 151 155 158 156 152 152 151 151 150 153 156 158 164 156 156 132 135 133 130 128 130 141 149 158 175
245 262 277 297 333 338 337 327 308 295 252 125 120 118 142 154 159 160 159 154 152 151 155 156 151 159 163 156 148 159 163 159 172 161 170 188 181 150 138 140 147 149 150 151 162 176 182 195 188
248 266 285 303 315 323 313 307 304 308 332 99 147 149 156 160 164 167 166 162 159 156 154 152 153 162 159 141 154 164 164 160 182 163 176 186 160 137 136 152 155 167 174 181 173 195 213 190 179
252 273 287 293 304 300 296 301 305 327 25 102 145 155 163 167 170 174 171 164 161 157 152 154 151 154 148 146 156 159 159 166 169 159 183 164 160 147 140 150 169 177 183 174 185 205 191 144 160
254 266 275 282 286 285 288 284 291 341 123 130 138 156 166 170 170 175 164 155 155 159 155 152 146 140 134 134 161 163 160 166 156 152 173 160 166 149 131 131 142 182 148 167 209 158 132 100 44
277 279 284 285 276 271 276 282 300 307 203 138 152 165 162 167 169 171 160 159 158 161 155 147 142 136 135 144 166 150 156 145 146 156 160 171 156 125 123 140 150 181 147 112 121 120 142 186 171
278 280 279 272 265 260 279 283 292 197 212 166 152 153 157 161 166 168 164 165 162 159 153 150 148 148 151 161 177 164 161 151 148 145 147 162 145 126 137 150 177 177 133 128 169 175 185 194 176
272 267 265 262 254 246 256 280 177 192 216 175 149 155 160 154 168 166 162 158 156 156 157 161 165 160 159 163 181 166 169 143 139 135 140 150 128 133 150 170 167 149 154 164 173 221 208 183 172
260 257 260 258 229 254 270 286 166 189 207 179 162 159 158 155 165 158 161 157 153 153 155 161 160 161 162 165 178 173 140 128 135 137 134 144 150 147 176 149 119 179 177 181 203 157 140 160 174
265 270 269 261 230 259 282 289 216 191 201 180 162 159 158 163 169 162 159 157 154 158 162 163 163 164 163 165 170 161 140 143 146 136 126 144 161 153 178 157 141 218 189 149 76 90 77 55 205
275 290 296 294 286 282 288 290 256 203 197 169 161 161 165 168 167 159 160 163 160 164 169 168 169 170 166 169 168 165 159 159 153 142 135 158 167 149 195 145 144 226 154 116 128 134 166 232 214
277 283 286 288 282 281 291 293 290 311 167 163 173 174 173 171 166 160 162 168 168 170 173 170 170 170 174 173 166 162 150 162 158 134 142 163 164 164 183 148 181 163 120 123 134 109 212 241 196
268 270 276 283 288 287 285 284 259 179 213 178 181 173 170 170 167 165 168 174 175 174 177 176 171 172 173 168 160 155 147 164 153 146 156 164 167 178 140 146 202 146 175 152 175 185 219 247 213
266 265 270 278 282 284 292 287 208 201 203 196 175 165 164 163 164 167 172 177 180 179 177 172 170 169 170 169 166 168 169 176 173 162 151 155 163 161 153 163 145 149 175 138 195 175 211 225 245
269 274 276 278 276 280 287 288 251 200 200 189 175 162 149 154 163 165 170 171 172 173 171 170 166 166 170 174 173 173 174 174 166 152 144 155 157 166 164 155 146 168 224 135 93 99 287 288 270
262 271 273 271 272 272 282 276 259 204 187 165 157 143 144 149 151 153 157 156 164 171 171 170 165 168 172 174 174 176 178 176 166 155 155 165 158 173 170 155 154 179 168 119 122 123 206 285 341
242 249 257 251 244 261 314 290 251 188 147 138 136 139 145 145 148 150 156 158 165 173 175 169 165 168 172 174 177 180 178 173 169 164 167 173 166 170 168 155 159 173 132 143 160 175 244 202 250
246 239 248 267 270 272 324 272 271 159 122 122 128 135 143 149 149 149 154 155 159 166 170 166 161 161 167 174 177 178 172 171 170 173 167 181 172 163 155 148 166 165 163 177 160 196 194 172 195
248 250 253 264 268 259 205 225 266 285 134 137 133 143 150 147 143 142 147 152 154 159 159 157 150 155 164 169 168 169 168 174 173 168 169 172 159 149 152 158 165 168 176 169 149 233 190 140 197
239 253 258 263 277 280 251 212 304 312 244 167 150 156 144 146 148 144 148 152 152 150 148 146 148 154 161 166 170 168 168 174 172 168 167 156 152 142 154 164 165 168 170 176 193 224 176 172 224
222 239 257 275 276 282 288 215 196 259 260 213 169 157 147 155 151 144 143 145 148 148 149 150 151 154 157 161 164 159 161 163 162 162 156 150 145 150 164 170 170 173 176 182 203 240 186 196 222
241 236 240 253 270 280 287 231 177 220 235 212 173 147 144 148 144 143 142 145 149 151 152 152 155 157 158 158 156 154 157 161 165 162 160 156 159 170 176 177 178 191 188 185 195 226 211 195 212